| time (UTC) | temp C | wind direction | speed KPH | gust KPH | rain 1hr cm | rain 24hr cm | rain mn cm | humidity % | barometer mb |
| 20260504192007 | 26 | 306 | 0.0 | 6.4 | 0.00 | 0.00 | 0.00 | 38 | 1015.9 |
| 20260504191531 | 26 | 296 | 1.6 | 6.4 | 0.00 | 0.00 | 0.00 | 41 | 1016.0 |
| 20260504191008 | 26 | 311 | 0.0 | 6.4 | 0.00 | 0.00 | 0.00 | 38 | 1016.0 |
| 20260504190504 | 26 | 40 | 1.6 | 6.4 | 0.00 | 0.00 | 0.00 | 38 | 1016.1 |
| 20260504190019 | 26 | 167 | 0.0 | 4.8 | 0.00 | 0.00 | 0.00 | 37 | 1016.1 |
| 20260504185507 | 26 | 296 | 0.0 | 4.8 | 0.00 | 0.00 | 0.00 | 37 | 1016.3 |
| 20260504185003 | 26 | 81 | 0.0 | 4.8 | 0.00 | 0.00 | 0.00 | 38 | 1016.3 |
| 20260504184508 | 27 | 32 | 0.0 | 4.8 | 0.00 | 0.00 | 0.00 | 35 | 1016.4 |
| 20260504184002 | 27 | 155 | 0.0 | 4.8 | 0.00 | 0.00 | 0.00 | 33 | 1016.5 |
| 20260504183502 | 27 | 44 | 0.0 | 1.6 | 0.00 | 0.00 | 0.00 | 34 | 1016.5 |
| 20260504183011 | 27 | 272 | 0.0 | 3.2 | 0.00 | 0.00 | 0.00 | 35 | 1016.5 |
| 20260504182503 | 27 | 9 | 0.0 | 3.2 | 0.00 | 0.00 | 0.00 | 37 | 1016.5 |
| 20260504182003 | 27 | 42 | 0.0 | 1.6 | 0.00 | 0.00 | 0.00 | 37 | 1016.6 |
| 20260504181513 | 27 | 39 | 0.0 | 3.2 | 0.00 | 0.00 | 0.00 | 37 | 1016.6 |
| 20260504181003 | 27 | 300 | 0.0 | 3.2 | 0.00 | 0.00 | 0.00 | 39 | 1016.7 |
| 20260504180507 | 27 | 48 | 0.0 | 3.2 | 0.00 | 0.00 | 0.00 | 38 | 1016.8 |
| 20260504180023 | 27 | 163 | 0.0 | 3.2 | 0.00 | 0.00 | 0.00 | 39 | 1017.0 |
| 20260504175504 | 26 | 319 | 0.0 | 1.6 | 0.00 | 0.00 | 0.00 | 39 | 1017.1 |
| 20260504175006 | 26 | 339 | 0.0 | 3.2 | 0.00 | 0.00 | 0.00 | 39 | 1017.2 |
| 20260504174520 | 26 | 40 | 0.0 | 3.2 | 0.00 | 0.00 | 0.00 | 40 | 1017.2 |
| 20260504174003 | 26 | 352 | 0.0 | 0.0 | 0.00 | 0.00 | 0.00 | 39 | 1017.3 |
| 20260504173503 | 26 | 227 | 0.0 | 6.4 | 0.00 | 0.00 | 0.00 | 44 | 1017.3 |
| 20260504173011 | 25 | 311 | 0.0 | 6.4 | 0.00 | 0.00 | 0.00 | 42 | 1017.4 |
| 20260504172502 | 25 | 132 | 0.0 | 4.8 | 0.00 | 0.00 | 0.00 | 43 | 1017.4 |
| 20260504172002 | 25 | 36 | 0.0 | 4.8 | 0.00 | 0.00 | 0.00 | 43 | 1017.4 |
| 20260504171513 | 25 | 144 | 0.0 | 3.2 | 0.00 | 0.00 | 0.00 | 39 | 1017.5 |
| 20260504171006 | 25 | 164 | 0.0 | 3.2 | 0.00 | 0.00 | 0.00 | 40 | 1017.6 |
| 20260504170506 | 25 | 148 | 0.0 | 3.2 | 0.00 | 0.00 | 0.00 | 46 | 1017.6 |
| 20260504151005 | 16 | 86 | 0.0 | 0.0 | 0.00 | 0.00 | 0.00 | 63 | 1018.6 |
| 20260504150504 | 15 | 259 | 0.0 | 0.0 | 0.00 | 0.00 | 0.00 | 65 | 1018.5 |
| 20260504141017 | 11 | 330 | 0.0 | 3.2 | 0.00 | 0.00 | 0.00 | 84 | 1019.1 |
| 20260504140504 | 11 | 104 | 0.0 | 3.2 | 0.00 | 0.00 | 0.00 | 86 | 1019.0 |
| 20260504130511 | 8 | 225 | 0.0 | 0.0 | 0.00 | 0.00 | 0.00 | 89 | 1018.9 |
| 20260504110511 | 8 | 232 | 0.0 | 0.0 | 0.00 | 0.00 | 0.00 | 85 | 1018.5 |
| 20260504100506 | 8 | 232 | 0.0 | 0.0 | 0.00 | 0.00 | 0.00 | 84 | 1018.2 |
| 20260504082003 | 8 | 233 | 0.0 | 0.0 | 0.00 | 0.00 | 0.00 | 80 | 1018.1 |
| 20260504081512 | 9 | 232 | 0.0 | 0.0 | 0.00 | 0.00 | 0.00 | 80 | 1018.2 |
| 20260504081009 | 9 | 232 | 0.0 | 0.0 | 0.00 | 0.00 | 0.00 | 80 | 1018.2 |
| 20260504080505 | 9 | 233 | 0.0 | 0.0 | 0.00 | 0.00 | 0.00 | 80 | 1018.2 |
| 20260504050508 | 11 | 233 | 0.0 | 0.0 | 0.00 | 0.00 | 0.00 | 72 | 1018.9 |
| 20260504050011 | 11 | 233 | 0.0 | 0.0 | 0.00 | 0.00 | 0.00 | 72 | 1019.0 |
| 20260504045503 | 11 | 233 | 0.0 | 0.0 | 0.00 | 0.00 | 0.00 | 71 | 1019.1 |
| 20260504045004 | 11 | 232 | 0.0 | 0.0 | 0.00 | 0.00 | 0.00 | 71 | 1019.0 |
| 20260504044510 | 11 | 233 | 0.0 | 0.0 | 0.00 | 0.00 | 0.00 | 70 | 1018.9 |
| 20260504044007 | 11 | 233 | 0.0 | 0.0 | 0.00 | 0.00 | 0.00 | 69 | 1018.9 |
| 20260504043507 | 11 | 233 | 0.0 | 0.0 | 0.00 | 0.00 | 0.00 | 69 | 1018.8 |
| 20260504043008 | 11 | 232 | 0.0 | 0.0 | 0.00 | 0.00 | 0.00 | 68 | 1018.9 |
| 20260504042505 | 11 | 233 | 0.0 | 0.0 | 0.00 | 0.00 | 0.00 | 68 | 1019.1 |
| 20260504042007 | 11 | 233 | 0.0 | 0.0 | 0.00 | 0.00 | 0.00 | 68 | 1019.1 |
| 20260504041525 | 12 | 232 | 0.0 | 0.0 | 0.00 | 0.00 | 0.00 | 67 | 1019.2 |
| 20260504041003 | 12 | 233 | 0.0 | 0.0 | 0.00 | 0.00 | 0.00 | 67 | 1019.1 |
| 20260504040503 | 12 | 232 | 0.0 | 0.0 | 0.00 | 0.00 | 0.00 | 67 | 1019.1 |
| 20260504040027 | 12 | 232 | 0.0 | 0.0 | 0.00 | 0.00 | 0.00 | 66 | 1019.1 |
| 20260504035506 | 12 | 232 | 0.0 | 0.0 | 0.00 | 0.00 | 0.00 | 66 | 1019.2 |
| 20260504035008 | 12 | 233 | 0.0 | 0.0 | 0.00 | 0.00 | 0.00 | 66 | 1019.2 |
| 20260504034514 | 12 | 232 | 0.0 | 0.0 | 0.00 | 0.00 | 0.00 | 65 | 1019.2 |
| 20260504034004 | 12 | 233 | 0.0 | 0.0 | 0.00 | 0.00 | 0.00 | 65 | 1019.3 |
| 20260504033504 | 12 | 233 | 0.0 | 0.0 | 0.00 | 0.00 | 0.00 | 65 | 1019.2 |
| 20260504033019 | 12 | 233 | 0.0 | 0.0 | 0.00 | 0.00 | 0.00 | 64 | 1019.1 |
| 20260504032507 | 12 | 232 | 0.0 | 0.0 | 0.00 | 0.00 | 0.00 | 64 | 1019.2 |
| 20260504032012 | 12 | 233 | 0.0 | 0.0 | 0.00 | 0.00 | 0.00 | 63 | 1019.1 |
| 20260504031514 | 13 | 233 | 0.0 | 0.0 | 0.00 | 0.00 | 0.00 | 63 | 1019.1 |
| 20260504031005 | 13 | 233 | 0.0 | 0.0 | 0.00 | 0.00 | 0.00 | 62 | 1019.1 |
| 20260504030507 | 13 | 232 | 0.0 | 0.0 | 0.00 | 0.00 | 0.00 | 61 | 1019.1 |
| 20260504030010 | 13 | 233 | 0.0 | 0.0 | 0.00 | 0.00 | 0.00 | 61 | 1019.1 |
| 20260504025504 | 13 | 233 | 0.0 | 0.0 | 0.00 | 0.00 | 0.00 | 61 | 1019.1 |
| 20260504025008 | 13 | 233 | 0.0 | 0.0 | 0.00 | 0.00 | 0.00 | 60 | 1019.0 |
| 20260504024513 | 13 | 232 | 0.0 | 0.0 | 0.00 | 0.00 | 0.00 | 60 | 1019.0 |
| 20260504024008 | 13 | 233 | 0.0 | 0.0 | 0.00 | 0.00 | 0.00 | 59 | 1018.9 |
| 20260504023505 | 13 | 233 | 0.0 | 0.0 | 0.00 | 0.00 | 0.00 | 59 | 1018.8 |
| 20260504023016 | 13 | 232 | 0.0 | 0.0 | 0.00 | 0.00 | 0.00 | 59 | 1018.8 |
| 20260504022503 | 13 | 232 | 0.0 | 0.0 | 0.00 | 0.00 | 0.00 | 58 | 1018.9 |
| 20260504022007 | 13 | 232 | 0.0 | 0.0 | 0.00 | 0.00 | 0.00 | 57 | 1018.8 |
| 20260504021524 | 14 | 232 | 0.0 | 0.0 | 0.00 | 0.00 | 0.00 | 57 | 1018.7 |
| 20260504021008 | 14 | 233 | 0.0 | 0.0 | 0.00 | 0.00 | 0.00 | 56 | 1018.6 |
| 20260504020503 | 14 | 232 | 0.0 | 0.0 | 0.00 | 0.00 | 0.00 | 56 | 1018.5 |
| 20260504020020 | 14 | 233 | 0.0 | 0.0 | 0.00 | 0.00 | 0.00 | 54 | 1018.5 |
| 20260504015511 | 15 | 232 | 0.0 | 0.0 | 0.00 | 0.00 | 0.00 | 55 | 1018.5 |
| 20260504015012 | 15 | 233 | 0.0 | 0.0 | 0.00 | 0.00 | 0.00 | 54 | 1018.4 |
| 20260504014524 | 15 | 233 | 0.0 | 0.0 | 0.00 | 0.00 | 0.00 | 54 | 1018.3 |
| 20260504014003 | 15 | 233 | 0.0 | 0.0 | 0.00 | 0.00 | 0.00 | 52 | 1018.3 |
| 20260504013503 | 15 | 233 | 0.0 | 0.0 | 0.00 | 0.00 | 0.00 | 52 | 1018.2 |
| 20260504013014 | 15 | 233 | 0.0 | 0.0 | 0.00 | 0.00 | 0.00 | 51 | 1018.3 |
| 20260504012507 | 15 | 233 | 0.0 | 0.0 | 0.00 | 0.00 | 0.00 | 51 | 1018.3 |
| 20260504012008 | 15 | 233 | 0.0 | 0.0 | 0.00 | 0.00 | 0.00 | 49 | 1018.1 |
| 20260504011520 | 16 | 233 | 0.0 | 0.0 | 0.00 | 0.00 | 0.00 | 48 | 1018.0 |
| 20260504011007 | 16 | 232 | 0.0 | 0.0 | 0.00 | 0.00 | 0.00 | 48 | 1018.0 |
| 20260504010507 | 16 | 232 | 0.0 | 0.0 | 0.00 | 0.00 | 0.00 | 47 | 1017.9 |
| 20260504010022 | 16 | 233 | 0.0 | 0.0 | 0.00 | 0.00 | 0.00 | 45 | 1017.9 |
| 20260504005505 | 16 | 233 | 0.0 | 0.0 | 0.00 | 0.00 | 0.00 | 45 | 1017.9 |
| 20260504005006 | 16 | 233 | 0.0 | 0.0 | 0.00 | 0.00 | 0.00 | 44 | 1017.9 |
| 20260504004539 | 17 | 233 | 0.0 | 0.0 | 0.00 | 0.00 | 0.00 | 43 | 1017.9 |
| 20260504004009 | 17 | 233 | 0.0 | 0.0 | 0.00 | 0.00 | 0.00 | 42 | 1017.8 |
| 20260504003505 | 17 | 232 | 0.0 | 0.0 | 0.00 | 0.00 | 0.00 | 42 | 1017.8 |
| 20260504003024 | 17 | 233 | 0.0 | 0.0 | 0.00 | 0.00 | 0.00 | 40 | 1017.7 |
| 20260504002503 | 17 | 233 | 0.0 | 0.0 | 0.00 | 0.00 | 0.00 | 40 | 1017.7 |
| 20260504002006 | 17 | 233 | 0.0 | 0.0 | 0.00 | 0.00 | 0.00 | 39 | 1017.7 |
| 20260504001520 | 18 | 233 | 0.0 | 0.0 | 0.00 | 0.00 | 0.00 | 38 | 1017.7 |
| 20260504001007 | 18 | 233 | 0.0 | 0.0 | 0.00 | 0.00 | 0.00 | 39 | 1017.8 |
| 20260504000505 | 18 | 242 | 0.0 | 0.0 | 0.00 | 0.00 | 0.00 | 38 | 1017.7 |
| 20260504000020 | 18 | 242 | 0.0 | 0.0 | 0.00 | 0.00 | 0.00 | 37 | 1017.8 |
| 20260503235506 | 18 | 240 | 0.0 | 0.0 | 0.00 | 0.00 | 0.00 | 38 | 1017.7 |
| 20260503235005 | 18 | 241 | 0.0 | 0.0 | 0.00 | 0.00 | 0.00 | 37 | 1017.6 |
| 20260503234517 | 18 | 206 | 0.0 | 0.0 | 0.00 | 0.00 | 0.00 | 39 | 1017.6 |
| 20260503234003 | 18 | 265 | 0.0 | 0.0 | 0.00 | 0.00 | 0.00 | 41 | 1017.6 |
| 20260503233502 | 18 | 176 | 0.0 | 3.2 | 0.00 | 0.00 | 0.00 | 41 | 1017.6 |
| 20260503233012 | 18 | 43 | 0.0 | 3.2 | 0.00 | 0.00 | 0.00 | 41 | 1017.6 |
| 20260503232507 | 19 | 117 | 0.0 | 3.2 | 0.00 | 0.00 | 0.00 | 41 | 1017.6 |
| 20260503232005 | 19 | 116 | 0.0 | 3.2 | 0.00 | 0.00 | 0.00 | 40 | 1017.6 |
| 20260503231509 | 19 | 278 | 0.0 | 3.2 | 0.00 | 0.00 | 0.00 | 40 | 1017.6 |
| 20260503231003 | 19 | 94 | 0.0 | 0.0 | 0.00 | 0.00 | 0.00 | 42 | 1017.6 |
| 20260503230508 | 19 | 217 | 0.0 | 1.6 | 0.00 | 0.00 | 0.00 | 41 | 1017.6 |
| 20260503230023 | 19 | 215 | 0.0 | 1.6 | 0.00 | 0.00 | 0.00 | 41 | 1017.6 |
| 20260503225503 | 19 | 243 | 0.0 | 0.0 | 0.00 | 0.00 | 0.00 | 41 | 1017.7 |
| 20260503225007 | 20 | 288 | 0.0 | 3.2 | 0.00 | 0.00 | 0.00 | 39 | 1017.7 |
| 20260503224524 | 20 | 130 | 0.0 | 1.6 | 0.00 | 0.00 | 0.00 | 39 | 1017.8 |
| 20260503224003 | 20 | 196 | 0.0 | 3.2 | 0.00 | 0.00 | 0.00 | 39 | 1017.7 |
| 20260503223503 | 20 | 36 | 0.0 | 3.2 | 0.00 | 0.00 | 0.00 | 39 | 1017.8 |
| 20260503223012 | 20 | 232 | 0.0 | 3.2 | 0.00 | 0.00 | 0.00 | 40 | 1017.6 |
| 20260503222503 | 20 | 5 | 0.0 | 0.0 | 0.00 | 0.00 | 0.00 | 42 | 1017.6 |
| 20260503222004 | 20 | 298 | 0.0 | 0.0 | 0.00 | 0.00 | 0.00 | 39 | 1017.6 |
| 20260503221511 | 20 | 11 | 0.0 | 0.0 | 0.00 | 0.00 | 0.00 | 39 | 1017.7 |
| 20260503221006 | 20 | 304 | 0.0 | 0.0 | 0.00 | 0.00 | 0.00 | 38 | 1017.7 |
| 20260503220506 | 20 | 252 | 0.0 | 0.0 | 0.00 | 0.00 | 0.00 | 40 | 1017.7 |
| 20260503220017 | 20 | 219 | 0.0 | 0.0 | 0.00 | 0.00 | 0.00 | 38 | 1017.7 |
| 20260503215506 | 20 | 333 | 0.0 | 3.2 | 0.00 | 0.00 | 0.00 | 37 | 1017.8 |
| 20260503215005 | 20 | 124 | 0.0 | 3.2 | 0.00 | 0.00 | 0.00 | 37 | 1017.9 |
| 20260503214510 | 20 | 334 | 0.0 | 3.2 | 0.00 | 0.00 | 0.00 | 38 | 1017.8 |
| 20260503214003 | 20 | 169 | 0.0 | 4.8 | 0.00 | 0.00 | 0.00 | 37 | 1017.7 |
| 20260503213508 | 20 | 350 | 1.6 | 4.8 | 0.00 | 0.00 | 0.00 | 37 | 1017.8 |
| 20260503213026 | 20 | 21 | 0.0 | 3.2 | 0.00 | 0.00 | 0.00 | 38 | 1017.9 |
| 20260503212503 | 20 | 192 | 0.0 | 1.6 | 0.00 | 0.00 | 0.00 | 38 | 1017.9 |
| 20260503212005 | 20 | 349 | 0.0 | 3.2 | 0.00 | 0.00 | 0.00 | 41 | 1018.0 |
| 20260503211508 | 20 | 312 | 0.0 | 6.4 | 0.00 | 0.00 | 0.00 | 39 | 1018.1 |
| 20260503211002 | 20 | 202 | 0.0 | 6.4 | 0.00 | 0.00 | 0.00 | 38 | 1018.0 |
| 20260503210506 | 20 | 207 | 0.0 | 6.4 | 0.00 | 0.00 | 0.00 | 38 | 1018.0 |
| 20260503210016 | 20 | 360 | 0.0 | 3.2 | 0.00 | 0.00 | 0.00 | 38 | 1018.0 |
| 20260503205510 | 20 | 192 | 0.0 | 3.2 | 0.00 | 0.00 | 0.00 | 37 | 1018.0 |
| 20260503205004 | 20 | 273 | 0.0 | 4.8 | 0.00 | 0.00 | 0.00 | 38 | 1018.1 |
| 20260503204526 | 20 | 168 | 0.0 | 4.8 | 0.00 | 0.00 | 0.00 | 38 | 1018.2 |
| 20260503204012 | 20 | 33 | 0.0 | 3.2 | 0.00 | 0.00 | 0.00 | 40 | 1018.2 |
| 20260503203503 | 20 | 271 | 0.0 | 0.0 | 0.00 | 0.00 | 0.00 | 38 | 1018.3 |
| 20260503203016 | 20 | 281 | 0.0 | 0.0 | 0.00 | 0.00 | 0.00 | 36 | 1018.4 |
| 20260503202509 | 20 | 292 | 0.0 | 3.2 | 0.00 | 0.00 | 0.00 | 37 | 1018.4 |
| 20260503202010 | 20 | 162 | 0.0 | 3.2 | 0.00 | 0.00 | 0.00 | 35 | 1018.5 |
| 20260503201514 | 20 | 242 | 0.0 | 3.2 | 0.00 | 0.00 | 0.00 | 37 | 1018.7 |
| 20260503201006 | 20 | 239 | 0.0 | 4.8 | 0.00 | 0.00 | 0.00 | 40 | 1018.7 |
| 20260503200503 | 20 | 329 | 0.0 | 4.8 | 0.00 | 0.00 | 0.00 | 40 | 1018.7 |
| 20260503200014 | 20 | 5 | 0.0 | 4.8 | 0.00 | 0.00 | 0.00 | 39 | 1018.8 |
| 20260503195506 | 21 | 93 | 0.0 | 4.8 | 0.00 | 0.00 | 0.00 | 39 | 1018.9 |
| 20260503195006 | 21 | 281 | 0.0 | 4.8 | 0.00 | 0.00 | 0.00 | 37 | 1019.1 |
| 20260503194518 | 21 | 248 | 0.0 | 4.8 | 0.00 | 0.00 | 0.00 | 38 | 1019.2 |
| 20260503194003 | 21 | 259 | 1.6 | 4.8 | 0.00 | 0.00 | 0.00 | 36 | 1019.2 |
| 20260503193510 | 21 | 10 | 0.0 | 4.8 | 0.00 | 0.00 | 0.00 | 36 | 1019.4 |
| 20260503193035 | 21 | 68 | 0.0 | 4.8 | 0.00 | 0.00 | 0.00 | 37 | 1019.5 |
| 20260503192510 | 21 | 246 | 0.0 | 4.8 | 0.00 | 0.00 | 0.00 | 36 | 1019.6 |